Location: Arrington
(35.8681°N, 86.7092°W)
Time: 12:33:01
(UTC+00:00)

ATLAS 2AS CENTAUR R/B - Pass Details

Date: 26 February 2020
Orbit: 929 x 1283 km, 63.7° (Epoch: 03 April)

Event Time Altitude Azimuth Distance (km) Brightness Sun altitude
Rises 00:46:43 0° 155° (SSE) 4,129 5.5 -14.7°
Reaches altitude 10° 00:51:03 10° 132° (SE) 3,220 4.8 -15.6°
Enters shadow 00:51:22 11° 130° (SE) 3,173 4.7 -15.7°
